DW6702 Weather Reports


Display with metric or nautical units.
time (UTC)temp
F
wind
direction
speed
MPH
gust
MPH
rain 1hr
in
rain 24hr
in
rain mn
in
humidity
%
barometer
mb
20190722001330 90 170 1.0 2.0 0.00 0.00 0.00 60 1014.5
20190722000323 91 158 2.0 4.0 0.00 0.00 0.00 58 1014.4
20190721235316 92 155 2.0 5.0 0.00 0.00 0.00 56 1014.5
20190721234332 93 156 3.0 5.0 0.00 0.00 0.00 55 1014.4
20190721233325 93 169 2.0 8.0 0.00 0.00 0.00 54 1014.4
20190721232315 94 153 2.0 7.0 0.00 0.00 0.00 52 1014.3
20190721231328 95 155 4.0 7.0 0.00 0.00 0.00 50 1014.4
20190721230324 95 172 2.0 8.0 0.00 0.00 0.00 52 1014.4
20190721225317 95 173 5.0 9.0 0.00 0.00 0.00 50 1014.2
20190721224330 95 188 5.0 10.0 0.00 0.00 0.00 51 1014.4
20190721223327 95 163 3.0 10.0 0.00 0.00 0.00 50 1014.4
20190721222319 95 181 7.0 12.0 0.00 0.00 0.00 49 1014.3
20190721221332 95 167 4.0 8.0 0.00 0.00 0.00 51 1014.4
20190721220324 96 147 4.0 10.0 0.00 0.00 0.00 50 1014.4
20190721215321 96 170 4.0 9.0 0.00 0.00 0.00 51 1014.4
20190721214334 96 178 5.0 12.0 0.00 0.00 0.00 50 1014.4
20190721213326 95 207 5.0 11.0 0.00 0.00 0.00 51 1014.4
20190721212322 95 147 4.0 11.0 0.00 0.00 0.00 51 1014.5
20190721211335 95 146 4.0 7.0 0.00 0.00 0.00 53 1014.5
20190721210327 95 155 5.0 12.0 0.00 0.00 0.00 51 1014.6
20190721205319 96 176 4.0 8.0 0.00 0.00 0.00 52 1014.6
20190721204316 95 168 3.0 8.0 0.00 0.00 0.00 53 1014.7
20190721203328 95 193 2.0 7.0 0.00 0.00 0.00 52 1014.7
20190721202321 95 179 5.0 12.0 0.00 0.00 0.00 52 1014.8
20190721201317 96 147 4.0 10.0 0.00 0.00 0.00 51 1014.8
20190721200330 96 175 3.0 11.0 0.00 0.00 0.00 52 1014.9
20190721195321 96 184 4.0 8.0 0.00 0.00 0.00 52 1014.8
20190721194334 96 191 6.0 10.0 0.00 0.00 0.00 52 1014.7
20190721193331 95 186 4.0 14.0 0.00 0.00 0.00 52 1014.9
20190721192322 96 142 4.0 12.0 0.00 0.00 0.00 53 1014.9
20190721191315 95 175 5.0 12.0 0.00 0.00 0.00 53 1014.9
20190721190332 94 172 4.0 11.0 0.00 0.00 0.00 54 1015.0
20190721185324 95 191 4.0 13.0 0.00 0.00 0.00 53 1015.1
20190721184317 96 184 4.0 8.0 0.00 0.00 0.00 54 1015.3
20190721183330 96 158 3.0 9.0 0.00 0.00 0.00 53 1015.4
20190721182325 95 163 3.0 12.0 0.00 0.00 0.00 55 1015.5
20190721181318 95 148 6.0 13.0 0.00 0.00 0.00 53 1015.6
20190721180330 95 172 8.0 15.0 0.00 0.00 0.00 53 1015.7
20190721175327 95 116 7.0 11.0 0.00 0.00 0.00 52 1015.8
20190721174319 95 236 5.0 9.0 0.00 0.00 0.00 52 1015.9
20190721173331 94 178 6.0 15.0 0.00 0.00 0.00 52 1016.0
20190721172324 94 164 5.0 15.0 0.00 0.00 0.00 53 1016.1
20190721171320 94 179 7.0 15.0 0.00 0.00 0.00 54 1016.0
20190721170333 94 172 5.0 12.0 0.00 0.00 0.00 55 1016.1
20190721165325 93 151 8.0 14.0 0.00 0.00 0.00 57 1016.3
20190721164321 93 165 6.0 13.0 0.00 0.00 0.00 58 1016.4
20190721163335 93 167 3.0 13.0 0.00 0.00 0.00 60 1016.3
20190721162327 92 152 6.0 13.0 0.00 0.00 0.00 60 1016.5
20190721161319 91 179 8.0 14.0 0.00 0.00 0.00 63 1016.5
20190721160317 91 153 3.0 14.0 0.00 0.00 0.00 63 1016.5
20190721155329 91 152 6.0 13.0 0.00 0.00 0.00 61 1016.6
20190721154321 91 145 7.0 14.0 0.00 0.00 0.00 64 1016.7
20190721153317 90 231 7.0 13.0 0.00 0.00 0.00 64 1016.8
20190721152330 90 158 5.0 12.0 0.00 0.00 0.00 64 1016.7
20190721151323 90 175 4.0 9.0 0.00 0.00 0.00 68 1016.6
20190721150315 89 167 5.0 14.0 0.00 0.00 0.00 69 1016.6
20190721145332 89 167 5.0 12.0 0.00 0.00 0.00 69 1016.7
20190721144324 88 224 6.0 13.0 0.00 0.00 0.00 69 1016.9
20190721143316 87 172 5.0 12.0 0.00 0.00 0.00 71 1016.9
20190721142330 87 172 7.0 17.0 0.00 0.00 0.00 71 1016.9
20190721141327 87 163 8.0 15.0 0.00 0.00 0.00 73 1016.9
20190721140320 86 168 4.0 14.0 0.00 0.00 0.00 73 1016.8
20190721135332 86 126 6.0 12.0 0.00 0.00 0.00 74 1016.8
20190721134329 86 172 4.0 11.0 0.00 0.00 0.00 74 1016.8
20190721133322 86 165 5.0 15.0 0.00 0.00 0.00 74 1016.7
20190721132335 85 179 5.0 10.0 0.00 0.00 0.00 75 1016.6
20190721131326 85 212 3.0 8.0 0.00 0.00 0.00 77 1016.7
20190721130323 84 157 5.0 9.0 0.00 0.00 0.00 77 1016.6
20190721125315 83 156 5.0 10.0 0.00 0.00 0.00 79 1016.7
20190721124329 82 172 4.0 7.0 0.00 0.00 0.00 80 1016.7
20190721123325 82 189 4.0 9.0 0.00 0.00 0.00 81 1016.7
20190721122318 81 176 3.0 9.0 0.00 0.00 0.00 82 1016.8
20190721121330 80 177 4.0 9.0 0.00 0.00 0.00 83 1016.8
20190721120323 80 185 4.0 9.0 0.00 0.00 0.00 84 1016.6
20190721115319 79 185 5.0 8.0 0.00 0.00 0.00 85 1016.4
20190721114332 79 172 2.0 8.0 0.00 0.00 0.00 87 1016.2
20190721113324 78 153 4.0 7.0 0.00 0.00 0.00 88 1016.3
20190721112321 77 171 4.0 7.0 0.00 0.00 0.00 89 1016.4
20190721111334 77 149 3.0 5.0 0.00 0.00 0.00 90 1016.2
20190721110326 77 163 2.0 5.0 0.00 0.00 0.00 91 1016.3
20190721105319 76 158 2.0 4.0 0.00 0.00 0.00 92 1016.2
20190721104315 76 168 3.0 5.0 0.00 0.00 0.00 93 1016.2
20190721103328 76 164 2.0 4.0 0.00 0.00 0.00 93 1016.2
20190721102321 75 153 1.0 4.0 0.00 0.00 0.00 94 1016.1
20190721101317 75 146 1.0 3.0 0.00 0.00 0.00 94 1016.0
20190721100330 76 151 0.0 2.0 0.00 0.00 0.00 93 1015.9
20190721095323 76 157 1.0 2.0 0.00 0.00 0.00 93 1016.1
20190721094316 76 170 1.0 3.0 0.00 0.00 0.00 93 1016.1
20190721093333 76 165 1.0 3.0 0.00 0.00 0.00 93 1016.1
20190721092325 76 163 2.0 3.0 0.00 0.00 0.00 93 1016.1
20190721091317 76 154 1.0 3.0 0.00 0.00 0.00 92 1016.0
20190721090334 76 179 2.0 3.0 0.00 0.00 0.00 92 1015.9
20190721085326 76 155 1.0 2.0 0.00 0.00 0.00 92 1015.9
20190721084319 76 160 1.0 2.0 0.00 0.00 0.00 92 1015.9
20190721083331 76 158 0.0 2.0 0.00 0.00 0.00 92 1015.9
20190721082327 76 154 1.0 1.0 0.00 0.00 0.00 92 1015.9
20190721081320 76 168 1.0 3.0 0.00 0.00 0.00 92 1015.8
20190721080334 76 157 1.0 4.0 0.00 0.00 0.00 92 1015.9
20190721075330 76 158 2.0 4.0 0.00 0.00 0.00 92 1015.7
20190721074322 76 158 2.0 3.0 0.00 0.00 0.00 92 1015.9
20190721073315 76 155 1.0 3.0 0.00 0.00 0.00 92 1015.9
20190721072328 76 150 1.0 3.0 0.00 0.00 0.00 92 1016.1
20190721071325 76 157 1.0 2.0 0.00 0.00 0.00 92 1016.0
20190721070316 76 158 1.0 3.0 0.00 0.00 0.00 91 1016.1
20190721065330 76 155 1.0 3.0 0.00 0.00 0.00 91 1016.1
20190721064326 76 155 1.0 2.0 0.00 0.00 0.00 90 1016.2
20190721063317 76 154 1.0 3.0 0.00 0.00 0.00 90 1016.3
20190721062330 76 171 2.0 4.0 0.00 0.00 0.00 90 1016.3
20190721061319 76 153 1.0 3.0 0.00 0.00 0.00 92 1016.3
20190721060336 76 151 0.0 1.0 0.00 0.00 0.00 92 1016.5
20190721055327 76 155 0.0 1.0 0.00 0.01 0.00 91 1016.5
20190721054318 76 155 0.0 0.0 0.00 0.01 0.00 89 1016.6
20190721053330 76 155 0.0 0.0 0.00 0.01 0.00 88 1016.6
20190721052328 77 155 0.0 1.0 0.00 0.01 0.00 88 1016.7
20190721051320 77 155 1.0 2.0 0.00 0.01 0.00 88 1016.6
20190721050333 77 154 1.0 2.0 0.00 0.01 0.00 87 1016.5
20190721045330 77 155 1.0 2.0 0.00 0.07 0.00 87 1016.6
20190721044323 77 160 1.0 2.0 0.00 0.07 0.00 86 1016.6
20190721043315 77 158 1.0 2.0 0.00 0.07 0.00 87 1016.5
20190721042329 78 157 1.0 3.0 0.00 0.07 0.00 86 1016.5
20190721041326 78 150 1.0 2.0 0.00 0.07 0.00 85 1016.5
20190721040317 78 154 1.0 1.0 0.00 0.07 0.00 85 1016.4
20190721035329 78 154 1.0 2.0 0.00 0.07 0.07 85 1016.3
20190721034326 79 154 1.0 2.0 0.00 0.07 0.07 83 1016.1
20190721033319 79 153 1.0 2.0 0.00 0.07 0.07 82 1016.1
20190721032331 79 154 0.0 1.0 0.00 0.07 0.07 81 1016.2
20190721031324 79 154 0.0 1.0 0.00 0.07 0.07 81 1016.1
20190721030319 79 154 0.0 1.0 0.00 0.07 0.07 80 1016.0
20190721025333 80 154 1.0 2.0 0.00 0.07 0.07 81 1016.1
20190721024324 80 158 1.0 2.0 0.00 0.07 0.07 80 1016.1
20190721023321 80 155 1.0 2.0 0.00 0.07 0.07 80 1016.1
20190721022334 80 154 1.0 2.0 0.00 0.07 0.07 78 1016.2
20190721021326 80 154 0.0 1.0 0.00 0.07 0.07 78 1016.2
20190721020319 80 154 0.0 1.0 0.00 0.07 0.07 77 1016.0
20190721015315 81 154 0.0 1.0 0.00 0.07 0.07 77 1016.0
20190721014327 81 154 0.0 2.0 0.00 0.07 0.07 76 1015.8
20190721013320 81 154 1.0 2.0 0.00 0.07 0.07 76 1015.7
20190721012317 82 154 1.0 1.0 0.00 0.07 0.07 74 1015.6
20190721011328 82 155 0.0 1.0 0.00 0.07 0.07 73 1015.7
20190721010321 83 155 0.0 1.0 0.00 0.07 0.07 73 1015.6
20190721005334 83 154 1.0 4.0 0.00 0.07 0.07 70 1015.7
20190721004331 84 164 0.0 1.0 0.00 0.07 0.07 69 1015.6
20190721003324 85 164 0.0 2.0 0.00 0.07 0.07 69 1015.6
20190721002317 85 168 1.0 3.0 0.00 0.07 0.07 67 1015.4